Year,Month,Day,Hour,Minute,Value (Times are PST for temperature in C)
2016,04,09,00,00,12.20
2016,04,09,00,01,12.20
2016,04,09,00,02,12.20
2016,04,09,00,03,12.20
2016,04,09,00,04,12.10
2016,04,09,00,05,12.10
2016,04,09,00,06,12.10
2016,04,09,00,07,12.10
2016,04,09,00,08,12.00
2016,04,09,00,09,12.00
2016,04,09,00,10,12.00
2016,04,09,00,11,12.00
2016,04,09,00,12,12.00
2016,04,09,00,13,11.90
2016,04,09,00,14,11.90
2016,04,09,00,15,11.90
2016,04,09,00,16,11.80
2016,04,09,00,17,11.80
2016,04,09,00,18,11.80
2016,04,09,00,19,11.80
2016,04,09,00,20,11.80
2016,04,09,00,21,11.80
2016,04,09,00,22,11.70
2016,04,09,00,23,11.70
2016,04,09,00,24,11.70
2016,04,09,00,25,11.70
2016,04,09,00,26,11.70
2016,04,09,00,27,11.70
2016,04,09,00,28,11.60
2016,04,09,00,29,11.60
2016,04,09,00,30,11.60
2016,04,09,00,31,11.60
2016,04,09,00,32,11.50
2016,04,09,00,33,11.50
2016,04,09,00,34,11.40
2016,04,09,00,35,11.40
2016,04,09,00,36,11.40
2016,04,09,00,37,11.40
2016,04,09,00,38,11.40
2016,04,09,00,39,11.30
2016,04,09,00,40,11.30
2016,04,09,00,41,11.30
2016,04,09,00,42,11.20
2016,04,09,00,43,11.20
2016,04,09,00,44,11.20
2016,04,09,00,45,11.20
2016,04,09,00,46,11.10
2016,04,09,00,47,11.10
2016,04,09,00,48,11.10
2016,04,09,00,49,11.00
2016,04,09,00,50,11.00
2016,04,09,00,51,11.00
2016,04,09,00,52,10.90
2016,04,09,00,53,10.90
2016,04,09,00,54,10.90
2016,04,09,00,55,10.90
2016,04,09,00,56,10.90
2016,04,09,00,57,10.90
2016,04,09,00,58,10.80
2016,04,09,00,59,10.80
2016,04,09,01,00,10.80
2016,04,09,01,01,10.80
2016,04,09,01,02,10.80
2016,04,09,01,03,10.80
2016,04,09,01,04,10.80
2016,04,09,01,05,10.70
2016,04,09,01,06,10.70
2016,04,09,01,07,10.70
2016,04,09,01,08,10.70
2016,04,09,01,09,10.70
2016,04,09,01,10,10.70
2016,04,09,01,11,10.70
2016,04,09,01,12,10.60
2016,04,09,01,13,10.60
2016,04,09,01,14,10.60
2016,04,09,01,15,10.60
2016,04,09,01,16,10.60
2016,04,09,01,17,10.50
2016,04,09,01,18,10.50
2016,04,09,01,19,10.50
2016,04,09,01,20,10.50
2016,04,09,01,21,10.40
2016,04,09,01,22,10.40
2016,04,09,01,23,10.40
2016,04,09,01,24,10.40
2016,04,09,01,25,10.40
2016,04,09,01,26,10.30
2016,04,09,01,27,10.30
2016,04,09,01,28,10.30
2016,04,09,01,29,10.30
2016,04,09,01,30,10.30
2016,04,09,01,31,10.30
2016,04,09,01,32,10.20
2016,04,09,01,33,10.20
2016,04,09,01,34,10.20
2016,04,09,01,35,10.20
2016,04,09,01,36,10.20
2016,04,09,01,37,10.20
2016,04,09,01,38,10.10
2016,04,09,01,39,10.10
2016,04,09,01,40,10.10
2016,04,09,01,41,10.10
2016,04,09,01,42,10.10
2016,04,09,01,43,10.10
2016,04,09,01,44,10.10
2016,04,09,01,45,10.00
2016,04,09,01,46,10.00
2016,04,09,01,47,10.00
2016,04,09,01,48,10.00
2016,04,09,01,49,10.00
2016,04,09,01,50,9.90
2016,04,09,01,51,9.90
2016,04,09,01,52,9.90
2016,04,09,01,53,9.90
2016,04,09,01,54,9.90
2016,04,09,01,55,9.90
2016,04,09,01,56,9.80
2016,04,09,01,57,9.80
2016,04,09,01,58,9.80
2016,04,09,01,59,9.80
2016,04,09,02,00,9.80
2016,04,09,02,01,9.80
2016,04,09,02,02,9.70
2016,04,09,02,03,9.70
2016,04,09,02,04,9.70
2016,04,09,02,05,9.70
2016,04,09,02,06,9.70
2016,04,09,02,07,9.70
2016,04,09,02,08,9.70
2016,04,09,02,09,9.70
2016,04,09,02,10,9.70
2016,04,09,02,11,9.60
2016,04,09,02,12,9.60
2016,04,09,02,13,9.60
2016,04,09,02,14,9.60
2016,04,09,02,15,9.60
2016,04,09,02,16,9.60
2016,04,09,02,17,9.60
2016,04,09,02,18,9.60
2016,04,09,02,19,9.60
2016,04,09,02,20,9.60
2016,04,09,02,21,9.60
2016,04,09,02,22,9.50
2016,04,09,02,23,9.50
2016,04,09,02,24,9.50
2016,04,09,02,25,9.50
2016,04,09,02,26,9.50
2016,04,09,02,27,9.40
2016,04,09,02,28,9.40
2016,04,09,02,29,9.40
2016,04,09,02,30,9.40
2016,04,09,02,31,9.40
2016,04,09,02,32,9.40
2016,04,09,02,33,9.30
2016,04,09,02,34,9.30
2016,04,09,02,35,9.30
2016,04,09,02,36,9.30
2016,04,09,02,37,9.30
2016,04,09,02,38,9.30
2016,04,09,02,39,9.30
2016,04,09,02,40,9.30
2016,04,09,02,41,9.30
2016,04,09,02,42,9.30
2016,04,09,02,43,9.30
2016,04,09,02,44,9.30
2016,04,09,02,45,9.30
2016,04,09,02,46,9.30
2016,04,09,02,47,9.30
2016,04,09,02,48,9.30
2016,04,09,02,49,9.30
2016,04,09,02,50,9.30
2016,04,09,02,51,9.30
2016,04,09,02,52,9.30
2016,04,09,02,53,9.30
2016,04,09,02,54,9.30
2016,04,09,02,55,9.20
2016,04,09,02,56,9.20
2016,04,09,02,57,9.20
2016,04,09,02,58,9.20
2016,04,09,02,59,9.20
2016,04,09,03,00,9.20
2016,04,09,03,01,9.20
2016,04,09,03,02,9.20
2016,04,09,03,03,9.20
2016,04,09,03,04,9.20
2016,04,09,03,05,9.20
2016,04,09,03,06,9.20
2016,04,09,03,07,9.20
2016,04,09,03,08,9.20
2016,04,09,03,09,9.20
2016,04,09,03,10,9.20
2016,04,09,03,11,9.20
2016,04,09,03,12,9.20
2016,04,09,03,13,9.20
2016,04,09,03,14,9.20
2016,04,09,03,15,9.20
2016,04,09,03,16,9.20
2016,04,09,03,17,9.20
2016,04,09,03,18,9.10
2016,04,09,03,19,9.10
2016,04,09,03,20,9.10
2016,04,09,03,21,9.10
2016,04,09,03,22,9.10
2016,04,09,03,23,9.10
2016,04,09,03,24,9.10
2016,04,09,03,25,9.10
2016,04,09,03,26,9.10
2016,04,09,03,27,9.10
2016,04,09,03,28,9.10
2016,04,09,03,29,9.20
2016,04,09,03,30,9.20
2016,04,09,03,31,9.20
2016,04,09,03,32,9.20
2016,04,09,03,33,9.20
2016,04,09,03,34,9.20
2016,04,09,03,35,9.20
2016,04,09,03,36,9.10
2016,04,09,03,37,9.10
2016,04,09,03,38,9.10
2016,04,09,03,39,9.10
2016,04,09,03,40,9.10
2016,04,09,03,41,9.10
2016,04,09,03,42,9.10
2016,04,09,03,43,9.10
2016,04,09,03,44,9.10
2016,04,09,03,45,9.10
2016,04,09,03,46,9.00
2016,04,09,03,47,9.00
2016,04,09,03,48,9.00
2016,04,09,03,49,9.00
2016,04,09,03,50,9.00
2016,04,09,03,51,8.90
2016,04,09,03,52,8.90
2016,04,09,03,53,8.90
2016,04,09,03,54,8.90
2016,04,09,03,55,8.90
2016,04,09,03,56,8.90
2016,04,09,03,57,8.90
2016,04,09,03,58,8.90
2016,04,09,03,59,8.90
2016,04,09,04,00,8.90
2016,04,09,04,01,8.90
2016,04,09,04,02,8.90
2016,04,09,04,03,8.90
2016,04,09,04,04,8.90
2016,04,09,04,05,8.90
2016,04,09,04,06,8.90
2016,04,09,04,07,8.90
2016,04,09,04,08,8.90
2016,04,09,04,09,8.90
2016,04,09,04,10,8.90
2016,04,09,04,11,8.80
2016,04,09,04,12,8.80
2016,04,09,04,13,8.80
2016,04,09,04,14,8.80
2016,04,09,04,15,8.80
2016,04,09,04,16,8.80
2016,04,09,04,17,8.80
2016,04,09,04,18,8.80
2016,04,09,04,19,8.80
2016,04,09,04,20,8.70
2016,04,09,04,21,8.70
2016,04,09,04,22,8.70
2016,04,09,04,23,8.70
2016,04,09,04,24,8.70
2016,04,09,04,25,8.70
2016,04,09,04,26,8.60
2016,04,09,04,27,8.60
2016,04,09,04,28,8.60
2016,04,09,04,29,8.60
2016,04,09,04,30,8.60
2016,04,09,04,31,8.60
2016,04,09,04,32,8.50
2016,04,09,04,33,8.50
2016,04,09,04,34,8.50
2016,04,09,04,35,8.40
2016,04,09,04,36,8.40
2016,04,09,04,37,8.40
2016,04,09,04,38,8.40
2016,04,09,04,39,8.40
2016,04,09,04,40,8.30
2016,04,09,04,41,8.30
2016,04,09,04,42,8.30
2016,04,09,04,43,8.30
2016,04,09,04,44,8.30
2016,04,09,04,45,8.30
2016,04,09,04,46,8.20
2016,04,09,04,47,8.20
2016,04,09,04,48,8.20
2016,04,09,04,49,8.20
2016,04,09,04,50,8.20
2016,04,09,04,51,8.20
2016,04,09,04,52,8.20
2016,04,09,04,53,8.10
2016,04,09,04,54,8.10
2016,04,09,04,55,8.10
2016,04,09,04,56,8.10
2016,04,09,04,57,8.10
2016,04,09,04,58,8.10
2016,04,09,04,59,8.10
2016,04,09,05,00,8.10
2016,04,09,05,01,8.10
2016,04,09,05,02,8.10
2016,04,09,05,03,8.00
2016,04,09,05,04,8.00
2016,04,09,05,05,8.00
2016,04,09,05,06,8.00
2016,04,09,05,07,8.00
2016,04,09,05,08,7.90
2016,04,09,05,09,7.90
2016,04,09,05,10,7.90
2016,04,09,05,11,7.90
2016,04,09,05,12,7.90
2016,04,09,05,13,7.90
2016,04,09,05,14,7.90
2016,04,09,05,15,7.80
2016,04,09,05,16,7.80
2016,04,09,05,17,7.80
2016,04,09,05,18,7.80
2016,04,09,05,19,7.80
2016,04,09,05,20,7.80
2016,04,09,05,21,7.80
2016,04,09,05,22,7.80
2016,04,09,05,23,7.80
2016,04,09,05,24,7.80
2016,04,09,05,25,7.80
2016,04,09,05,26,7.70
2016,04,09,05,27,7.70
2016,04,09,05,28,7.70
2016,04,09,05,29,7.70
2016,04,09,05,30,7.70
2016,04,09,05,31,7.70
2016,04,09,05,32,7.70
2016,04,09,05,33,7.70
2016,04,09,05,34,7.70
2016,04,09,05,35,7.70
2016,04,09,05,36,7.70
2016,04,09,05,37,7.70
2016,04,09,05,38,7.70
2016,04,09,05,39,7.70
2016,04,09,05,40,7.60
2016,04,09,05,41,7.60
2016,04,09,05,42,7.60
2016,04,09,05,43,7.60
2016,04,09,05,44,7.60
2016,04,09,05,45,7.60
2016,04,09,05,46,7.60
2016,04,09,05,47,7.60
2016,04,09,05,48,7.60
2016,04,09,05,49,7.60
2016,04,09,05,50,7.60
2016,04,09,05,51,7.60
2016,04,09,05,52,7.60
2016,04,09,05,53,7.60
2016,04,09,05,54,7.60
2016,04,09,05,55,7.60
2016,04,09,05,56,7.60
2016,04,09,05,57,7.50
2016,04,09,05,58,7.50
2016,04,09,05,59,7.50
2016,04,09,06,00,7.50
2016,04,09,06,01,7.50
2016,04,09,06,02,7.50
2016,04,09,06,03,7.50
2016,04,09,06,04,7.50
2016,04,09,06,05,7.50
2016,04,09,06,06,7.50
2016,04,09,06,07,7.50
2016,04,09,06,08,7.50
2016,04,09,06,09,7.50
2016,04,09,06,10,7.50
2016,04,09,06,11,7.50
2016,04,09,06,12,7.50
2016,04,09,06,13,7.50
2016,04,09,06,14,7.50
2016,04,09,06,15,7.50
2016,04,09,06,16,7.50
2016,04,09,06,17,7.50
2016,04,09,06,18,7.50
2016,04,09,06,19,7.50
2016,04,09,06,20,7.50
2016,04,09,06,21,7.50
2016,04,09,06,22,7.50
2016,04,09,06,23,7.50
2016,04,09,06,24,7.50
2016,04,09,06,25,7.50
2016,04,09,06,26,7.50
2016,04,09,06,27,7.50
2016,04,09,06,28,7.50
2016,04,09,06,29,7.50
2016,04,09,06,30,7.50
2016,04,09,06,31,7.50
2016,04,09,06,32,7.50
2016,04,09,06,33,7.50
2016,04,09,06,34,7.50
2016,04,09,06,35,7.50
2016,04,09,06,36,7.50
2016,04,09,06,37,7.50
2016,04,09,06,38,7.50
2016,04,09,06,39,7.40
2016,04,09,06,40,7.40
2016,04,09,06,41,7.40
2016,04,09,06,42,7.40
2016,04,09,06,43,7.40
2016,04,09,06,44,7.40
2016,04,09,06,45,7.40
2016,04,09,06,46,7.40
2016,04,09,06,47,7.40
2016,04,09,06,48,7.40
2016,04,09,06,49,7.40
2016,04,09,06,50,7.40
2016,04,09,06,51,7.40
2016,04,09,06,52,7.40
2016,04,09,06,53,7.40
2016,04,09,06,54,7.40
2016,04,09,06,55,7.40
2016,04,09,06,56,7.40
2016,04,09,06,57,7.40
2016,04,09,06,58,7.40
2016,04,09,06,59,7.40
2016,04,09,07,00,7.40
2016,04,09,07,01,7.40
2016,04,09,07,02,7.40
2016,04,09,07,03,7.40
2016,04,09,07,04,7.40
2016,04,09,07,05,7.50
2016,04,09,07,06,7.50
2016,04,09,07,07,7.50
2016,04,09,07,08,7.60
2016,04,09,07,09,7.60
2016,04,09,07,10,7.60
2016,04,09,07,11,7.60
2016,04,09,07,12,7.70
2016,04,09,07,13,7.80
2016,04,09,07,14,7.80
2016,04,09,07,15,7.80
2016,04,09,07,16,7.80
2016,04,09,07,17,7.90
2016,04,09,07,18,7.90
2016,04,09,07,19,7.90
2016,04,09,07,20,8.00
2016,04,09,07,21,8.00
2016,04,09,07,22,8.10
2016,04,09,07,23,8.10
2016,04,09,07,24,8.20
2016,04,09,07,25,8.20
2016,04,09,07,26,8.30
2016,04,09,07,27,8.40
2016,04,09,07,28,8.40
2016,04,09,07,29,8.50
2016,04,09,07,30,8.60
2016,04,09,07,31,8.60
2016,04,09,07,32,8.70
2016,04,09,07,33,8.80
2016,04,09,07,34,8.80
2016,04,09,07,35,8.80
2016,04,09,07,36,8.90
2016,04,09,07,37,8.90
2016,04,09,07,38,9.00
2016,04,09,07,39,9.00
2016,04,09,07,40,9.10
2016,04,09,07,41,9.10
2016,04,09,07,42,9.20
2016,04,09,07,43,9.30
2016,04,09,07,44,9.30
2016,04,09,07,45,9.30
2016,04,09,07,46,9.40
2016,04,09,07,47,9.40
2016,04,09,07,48,9.50
2016,04,09,07,49,9.60
2016,04,09,07,50,9.70
2016,04,09,07,51,9.70
2016,04,09,07,52,9.80
2016,04,09,07,53,9.90
2016,04,09,07,54,9.90
2016,04,09,07,55,10.00
2016,04,09,07,56,10.10
2016,04,09,07,57,10.20
2016,04,09,07,58,10.20
2016,04,09,07,59,10.20
2016,04,09,08,00,10.30
2016,04,09,08,01,10.30
2016,04,09,08,02,10.40
2016,04,09,08,03,10.40
2016,04,09,08,04,10.50
2016,04,09,08,05,10.60
2016,04,09,08,06,10.60
2016,04,09,08,07,10.60
2016,04,09,08,08,10.70
2016,04,09,08,09,10.70
2016,04,09,08,10,10.70
2016,04,09,08,11,10.80
2016,04,09,08,12,10.80
2016,04,09,08,13,10.80
2016,04,09,08,14,10.90
2016,04,09,08,15,10.90
2016,04,09,08,16,10.90
2016,04,09,08,17,10.90
2016,04,09,08,18,11.00
2016,04,09,08,19,11.00
2016,04,09,08,20,11.10
2016,04,09,08,21,11.10
2016,04,09,08,22,11.20
2016,04,09,08,23,11.20
2016,04,09,08,24,11.30
2016,04,09,08,25,11.30
2016,04,09,08,26,11.40
2016,04,09,08,27,11.40
2016,04,09,08,28,11.50
2016,04,09,08,29,11.60
2016,04,09,08,30,11.60
2016,04,09,08,31,11.70
2016,04,09,08,32,11.70
2016,04,09,08,33,11.70
2016,04,09,08,34,11.80
2016,04,09,08,35,11.80
2016,04,09,08,36,11.80
2016,04,09,08,37,11.80
2016,04,09,08,38,11.90
2016,04,09,08,39,11.90
2016,04,09,08,40,12.00
2016,04,09,08,41,12.00
2016,04,09,08,42,12.10
2016,04,09,08,43,12.10
2016,04,09,08,44,12.10
2016,04,09,08,45,12.10
2016,04,09,08,46,12.10
2016,04,09,08,47,12.20
2016,04,09,08,48,12.20
2016,04,09,08,49,12.20
2016,04,09,08,50,12.20
2016,04,09,08,51,12.20
2016,04,09,08,52,12.30
2016,04,09,08,53,12.30
2016,04,09,08,54,12.30
2016,04,09,08,55,12.40
2016,04,09,08,56,12.40
2016,04,09,08,57,12.50
2016,04,09,08,58,12.60
2016,04,09,08,59,12.60
2016,04,09,09,00,12.70
2016,04,09,09,01,12.80
2016,04,09,09,02,12.80
2016,04,09,09,03,12.80
2016,04,09,09,04,12.90
2016,04,09,09,05,13.00
2016,04,09,09,06,13.00
2016,04,09,09,07,13.10
2016,04,09,09,08,13.20
2016,04,09,09,09,13.20
2016,04,09,09,10,13.30
2016,04,09,09,11,13.30
2016,04,09,09,12,13.40
2016,04,09,09,13,13.50
2016,04,09,09,14,13.50
2016,04,09,09,15,13.60
2016,04,09,09,16,13.60
2016,04,09,09,17,13.60
2016,04,09,09,18,13.70
2016,04,09,09,19,13.70
2016,04,09,09,20,13.70
2016,04,09,09,21,13.80
2016,04,09,09,22,13.80
2016,04,09,09,23,13.80
2016,04,09,09,24,13.80
2016,04,09,09,25,13.90
2016,04,09,09,26,13.90
2016,04,09,09,27,13.90
2016,04,09,09,28,14.00
2016,04,09,09,29,14.00
2016,04,09,09,30,14.10
2016,04,09,09,31,14.10
2016,04,09,09,32,14.10
2016,04,09,09,33,14.10
2016,04,09,09,34,14.20
2016,04,09,09,35,14.20
2016,04,09,09,36,14.20
2016,04,09,09,37,14.20
2016,04,09,09,38,14.20
2016,04,09,09,39,14.30
2016,04,09,09,40,14.30
2016,04,09,09,41,14.40
2016,04,09,09,42,14.40
2016,04,09,09,43,14.40
2016,04,09,09,44,14.50
2016,04,09,09,45,14.50
2016,04,09,09,46,14.60
2016,04,09,09,47,14.60
2016,04,09,09,48,14.60
2016,04,09,09,49,14.60
2016,04,09,09,50,14.60
2016,04,09,09,51,14.60
2016,04,09,09,52,14.60
2016,04,09,09,53,14.70
2016,04,09,09,54,14.70
2016,04,09,09,55,14.70
2016,04,09,09,56,14.70
2016,04,09,09,57,14.70
2016,04,09,09,58,14.70
2016,04,09,09,59,14.80
2016,04,09,10,00,14.80
2016,04,09,10,01,14.80
2016,04,09,10,02,14.90
2016,04,09,10,03,14.90
2016,04,09,10,04,14.90
2016,04,09,10,05,14.90
2016,04,09,10,06,14.90
2016,04,09,10,07,14.90
2016,04,09,10,08,15.00
2016,04,09,10,09,15.00
2016,04,09,10,10,15.10
2016,04,09,10,11,15.10
2016,04,09,10,12,15.10
2016,04,09,10,13,15.10
2016,04,09,10,14,15.20
2016,04,09,10,15,15.20
2016,04,09,10,16,15.30
2016,04,09,10,17,15.30
2016,04,09,10,18,15.30
2016,04,09,10,19,15.40
2016,04,09,10,20,15.40
2016,04,09,10,21,15.40
2016,04,09,10,22,15.40
2016,04,09,10,23,15.40
2016,04,09,10,24,15.40
2016,04,09,10,25,15.50
2016,04,09,10,26,15.50
2016,04,09,10,27,15.50
2016,04,09,10,28,15.60
2016,04,09,10,29,15.60
2016,04,09,10,30,15.60
2016,04,09,10,31,15.70
2016,04,09,10,32,15.70
2016,04,09,10,33,15.80
2016,04,09,10,34,15.80
2016,04,09,10,35,15.80
2016,04,09,10,36,15.80
2016,04,09,10,37,15.80
2016,04,09,10,38,15.80
2016,04,09,10,39,15.90
2016,04,09,10,40,15.90
2016,04,09,10,41,15.90
2016,04,09,10,42,16.00
2016,04,09,10,43,16.00
2016,04,09,10,44,16.00
2016,04,09,10,45,16.10
2016,04,09,10,46,16.10
2016,04,09,10,47,16.20
2016,04,09,10,48,16.20
2016,04,09,10,49,16.10
2016,04,09,10,50,16.10
2016,04,09,10,51,16.10
2016,04,09,10,52,16.10
2016,04,09,10,53,16.10
2016,04,09,10,54,16.00
2016,04,09,10,55,16.00
2016,04,09,10,56,16.10
2016,04,09,10,57,16.10
2016,04,09,10,58,16.20
2016,04,09,10,59,16.20
2016,04,09,11,00,16.30
2016,04,09,11,01,16.30
2016,04,09,11,02,16.40
2016,04,09,11,03,16.50
2016,04,09,11,04,16.60
2016,04,09,11,05,16.70
2016,04,09,11,06,16.80
2016,04,09,11,07,16.80
2016,04,09,11,08,16.90
2016,04,09,11,09,16.90
2016,04,09,11,10,16.90
2016,04,09,11,11,17.00
2016,04,09,11,12,17.00
2016,04,09,11,13,17.00
2016,04,09,11,14,17.00
2016,04,09,11,15,17.00
2016,04,09,11,16,16.90
2016,04,09,11,17,16.80
2016,04,09,11,18,16.80
2016,04,09,11,19,16.90
2016,04,09,11,20,16.90
2016,04,09,11,21,17.00
2016,04,09,11,22,17.00
2016,04,09,11,23,17.00
2016,04,09,11,24,16.90
2016,04,09,11,25,16.90
2016,04,09,11,26,16.80
2016,04,09,11,27,16.80
2016,04,09,11,28,16.80
2016,04,09,11,29,16.90
2016,04,09,11,30,16.90
2016,04,09,11,31,16.90
2016,04,09,11,32,17.00
2016,04,09,11,33,17.10
2016,04,09,11,34,17.20
2016,04,09,11,35,17.20
2016,04,09,11,36,17.20
2016,04,09,11,37,17.10
2016,04,09,11,38,17.00
2016,04,09,11,39,17.00
2016,04,09,11,40,17.00
2016,04,09,11,41,17.00
2016,04,09,11,42,17.10
2016,04,09,11,43,17.10
2016,04,09,11,44,17.10
2016,04,09,11,45,17.20
2016,04,09,11,46,17.30
2016,04,09,11,47,17.30
2016,04,09,11,48,17.30
2016,04,09,11,49,17.30
2016,04,09,11,50,17.30
2016,04,09,11,51,17.30
2016,04,09,11,52,17.30
2016,04,09,11,53,17.30
2016,04,09,11,54,17.40
2016,04,09,11,55,17.50
2016,04,09,11,56,17.50
2016,04,09,11,57,17.60
2016,04,09,11,58,17.60
2016,04,09,11,59,17.70
2016,04,09,12,00,17.70
2016,04,09,12,01,17.70
2016,04,09,12,02,17.80
2016,04,09,12,03,17.80
2016,04,09,12,04,17.90
2016,04,09,12,05,17.90
2016,04,09,12,06,18.00
2016,04,09,12,07,18.00
2016,04,09,12,08,18.10
2016,04,09,12,09,18.10
2016,04,09,12,10,18.10
2016,04,09,12,11,18.10
2016,04,09,12,12,18.00
2016,04,09,12,13,17.90
2016,04,09,12,14,17.80
2016,04,09,12,15,17.70
2016,04,09,12,16,17.70
2016,04,09,12,17,17.70
2016,04,09,12,18,17.80
2016,04,09,12,19,17.90
2016,04,09,12,20,17.90
2016,04,09,12,21,17.90
2016,04,09,12,22,17.90
2016,04,09,12,23,17.80
2016,04,09,12,24,17.80
2016,04,09,12,25,17.80
2016,04,09,12,26,17.80
2016,04,09,12,27,17.80
2016,04,09,12,28,17.80
2016,04,09,12,29,17.80
2016,04,09,12,30,17.80
2016,04,09,12,31,17.80
2016,04,09,12,32,17.80
2016,04,09,12,33,17.80
2016,04,09,12,34,17.80
2016,04,09,12,35,17.80
2016,04,09,12,36,17.80
2016,04,09,12,37,17.80
2016,04,09,12,38,17.80
2016,04,09,12,39,17.80
2016,04,09,12,40,17.90
2016,04,09,12,41,17.90
2016,04,09,12,42,18.00
2016,04,09,12,43,18.00
2016,04,09,12,44,18.00
2016,04,09,12,45,18.00
2016,04,09,12,46,18.00
2016,04,09,12,47,18.00
2016,04,09,12,48,17.90
2016,04,09,12,49,17.90
2016,04,09,12,50,17.90
2016,04,09,12,51,17.90
2016,04,09,12,52,18.00
2016,04,09,12,53,18.00
2016,04,09,12,54,18.10
2016,04,09,12,55,18.10
2016,04,09,12,56,18.00
2016,04,09,12,57,18.00
2016,04,09,12,58,17.90
2016,04,09,12,59,17.90
2016,04,09,13,00,17.90
2016,04,09,13,01,17.90
2016,04,09,13,02,17.90
2016,04,09,13,03,17.90
2016,04,09,13,04,17.90
2016,04,09,13,05,17.90
2016,04,09,13,06,17.90
2016,04,09,13,07,17.90
2016,04,09,13,08,17.90
2016,04,09,13,09,17.90
2016,04,09,13,10,17.90
2016,04,09,13,11,17.90
2016,04,09,13,12,17.80
2016,04,09,13,13,17.80
2016,04,09,13,14,17.80
2016,04,09,13,15,17.80
2016,04,09,13,16,17.80
2016,04,09,13,17,17.80
2016,04,09,13,18,17.80
2016,04,09,13,19,17.80
2016,04,09,13,20,17.70
2016,04,09,13,21,17.70
2016,04,09,13,22,17.70
2016,04,09,13,23,17.60
2016,04,09,13,24,17.60
2016,04,09,13,25,17.60
2016,04,09,13,26,17.60
2016,04,09,13,27,17.70
2016,04,09,13,28,17.70
2016,04,09,13,29,17.70
2016,04,09,13,30,17.70
2016,04,09,13,31,17.70
2016,04,09,13,32,17.70
2016,04,09,13,33,17.80
2016,04,09,13,34,17.80
2016,04,09,13,35,17.90
2016,04,09,13,36,18.00
2016,04,09,13,37,18.10
2016,04,09,13,38,18.10
2016,04,09,13,39,18.10
2016,04,09,13,40,18.10
2016,04,09,13,41,18.10
2016,04,09,13,42,18.10
2016,04,09,13,43,18.20
2016,04,09,13,44,18.10
2016,04,09,13,45,18.00
2016,04,09,13,46,17.90
2016,04,09,13,47,17.80
2016,04,09,13,48,17.80
2016,04,09,13,49,17.70
2016,04,09,13,50,17.70
2016,04,09,13,51,17.70
2016,04,09,13,52,17.70
2016,04,09,13,53,17.80
2016,04,09,13,54,17.80
2016,04,09,13,55,17.80
2016,04,09,13,56,17.90
2016,04,09,13,57,17.90
2016,04,09,13,58,18.00
2016,04,09,13,59,18.00
2016,04,09,14,00,18.20
2016,04,09,14,01,18.30
2016,04,09,14,02,18.40
2016,04,09,14,03,18.50
2016,04,09,14,04,18.50
2016,04,09,14,05,18.60
2016,04,09,14,06,18.60
2016,04,09,14,07,18.70
2016,04,09,14,08,18.70
2016,04,09,14,09,18.70
2016,04,09,14,10,18.80
2016,04,09,14,11,18.70
2016,04,09,14,12,18.70
2016,04,09,14,13,18.70
2016,04,09,14,14,18.60
2016,04,09,14,15,18.60
2016,04,09,14,16,18.60
2016,04,09,14,17,18.60
2016,04,09,14,18,18.70
2016,04,09,14,19,18.70
2016,04,09,14,20,18.80
2016,04,09,14,21,18.80
2016,04,09,14,22,18.90
2016,04,09,14,23,19.00
2016,04,09,14,24,19.00
2016,04,09,14,25,19.10
2016,04,09,14,26,19.20
2016,04,09,14,27,19.20
2016,04,09,14,28,19.30
2016,04,09,14,29,19.40
2016,04,09,14,30,19.40
2016,04,09,14,31,19.40
2016,04,09,14,32,19.30
2016,04,09,14,33,19.30
2016,04,09,14,34,19.20
2016,04,09,14,35,19.10
2016,04,09,14,36,19.10
2016,04,09,14,37,19.10
2016,04,09,14,38,19.10
2016,04,09,14,39,19.10
2016,04,09,14,40,19.00
2016,04,09,14,41,18.90
2016,04,09,14,42,18.90
2016,04,09,14,43,18.80
2016,04,09,14,44,18.80
2016,04,09,14,45,18.80
2016,04,09,14,46,18.80
2016,04,09,14,47,18.80
2016,04,09,14,48,18.80
2016,04,09,14,49,18.80
2016,04,09,14,50,18.90
2016,04,09,14,51,18.90
2016,04,09,14,52,19.00
2016,04,09,14,53,19.10
2016,04,09,14,54,19.10
2016,04,09,14,55,19.10
2016,04,09,14,56,19.20
2016,04,09,14,57,19.20
2016,04,09,14,58,19.30
2016,04,09,14,59,19.40
2016,04,09,15,00,19.40
2016,04,09,15,01,19.40
2016,04,09,15,02,19.50
2016,04,09,15,03,19.60
2016,04,09,15,04,19.60
2016,04,09,15,05,19.60
2016,04,09,15,06,19.70
2016,04,09,15,07,19.70
2016,04,09,15,08,19.70
2016,04,09,15,09,19.70
2016,04,09,15,10,19.70
2016,04,09,15,11,19.70
2016,04,09,15,12,19.70
2016,04,09,15,13,19.70
2016,04,09,15,14,19.70
2016,04,09,15,15,19.70
2016,04,09,15,16,19.70
2016,04,09,15,17,19.70
2016,04,09,15,18,19.60
2016,04,09,15,19,19.60
2016,04,09,15,20,19.60
2016,04,09,15,21,19.60
2016,04,09,15,22,19.60
2016,04,09,15,23,19.60
2016,04,09,15,24,19.50
2016,04,09,15,25,19.50
2016,04,09,15,26,19.50
2016,04,09,15,27,19.50
2016,04,09,15,28,19.60
2016,04,09,15,29,19.60
2016,04,09,15,30,19.60
2016,04,09,15,31,19.60
2016,04,09,15,32,19.60
2016,04,09,15,33,19.60
2016,04,09,15,34,19.60
2016,04,09,15,35,19.60
2016,04,09,15,36,19.60
2016,04,09,15,37,19.60
2016,04,09,15,38,19.50
2016,04,09,15,39,19.50
2016,04,09,15,40,19.50
2016,04,09,15,41,19.50
2016,04,09,15,42,19.50
2016,04,09,15,43,19.50
2016,04,09,15,44,19.50
2016,04,09,15,45,19.50
2016,04,09,15,46,19.50
2016,04,09,15,47,19.40
2016,04,09,15,48,19.30
2016,04,09,15,49,19.30
2016,04,09,15,50,19.30
2016,04,09,15,51,19.30
2016,04,09,15,52,19.40
2016,04,09,15,53,19.40
2016,04,09,15,54,19.50
2016,04,09,15,55,19.50
2016,04,09,15,56,19.50
2016,04,09,15,57,19.60
2016,04,09,15,58,19.60
2016,04,09,15,59,19.50
2016,04,09,16,00,19.50
2016,04,09,16,01,19.50
2016,04,09,16,02,19.50
2016,04,09,16,03,19.50
2016,04,09,16,04,19.50
2016,04,09,16,05,19.50
2016,04,09,16,06,19.60
2016,04,09,16,07,19.60
2016,04,09,16,08,19.60
2016,04,09,16,09,19.70
2016,04,09,16,10,19.70
2016,04,09,16,11,19.70
2016,04,09,16,12,19.70
2016,04,09,16,13,19.60
2016,04,09,16,14,19.60
2016,04,09,16,15,19.60
2016,04,09,16,16,19.50
2016,04,09,16,17,19.50
2016,04,09,16,18,19.40
2016,04,09,16,19,19.40
2016,04,09,16,20,19.40
2016,04,09,16,21,19.40
2016,04,09,16,22,19.50
2016,04,09,16,23,19.50
2016,04,09,16,24,19.60
2016,04,09,16,25,19.70
2016,04,09,16,26,19.80
2016,04,09,16,27,19.80
2016,04,09,16,28,19.80
2016,04,09,16,29,19.80
2016,04,09,16,30,19.80
2016,04,09,16,31,19.80
2016,04,09,16,32,19.80
2016,04,09,16,33,19.80
2016,04,09,16,34,19.70
2016,04,09,16,35,19.70
2016,04,09,16,36,19.70
2016,04,09,16,37,19.70
2016,04,09,16,38,19.70
2016,04,09,16,39,19.70
2016,04,09,16,40,19.70
2016,04,09,16,41,19.70
2016,04,09,16,42,19.70
2016,04,09,16,43,19.60
2016,04,09,16,44,19.60
2016,04,09,16,45,19.70
2016,04,09,16,46,19.70
2016,04,09,16,47,19.70
2016,04,09,16,48,19.70
2016,04,09,16,49,19.70
2016,04,09,16,50,19.60
2016,04,09,16,51,19.60
2016,04,09,16,52,19.60
2016,04,09,16,53,19.50
2016,04,09,16,54,19.50
2016,04,09,16,55,19.50
2016,04,09,16,56,19.40
2016,04,09,16,57,19.40
2016,04,09,16,58,19.40
2016,04,09,16,59,19.50
2016,04,09,17,00,19.50
2016,04,09,17,01,19.40
2016,04,09,17,02,19.40
2016,04,09,17,03,19.50
2016,04,09,17,04,19.50
2016,04,09,17,05,19.50
2016,04,09,17,06,19.50
2016,04,09,17,07,19.60
2016,04,09,17,08,19.60
2016,04,09,17,09,19.60
2016,04,09,17,10,19.60
2016,04,09,17,11,19.60
2016,04,09,17,12,19.60
2016,04,09,17,13,19.60
2016,04,09,17,14,19.60
2016,04,09,17,15,19.60
2016,04,09,17,16,19.60
2016,04,09,17,17,19.60
2016,04,09,17,18,19.60
2016,04,09,17,19,19.60
2016,04,09,17,20,19.60
2016,04,09,17,21,19.60
2016,04,09,17,22,19.60
2016,04,09,17,23,19.60
2016,04,09,17,24,19.60
2016,04,09,17,25,19.60
2016,04,09,17,26,19.60
2016,04,09,17,27,19.60
2016,04,09,17,28,19.50
2016,04,09,17,29,19.50
2016,04,09,17,30,19.50
2016,04,09,17,31,19.50
2016,04,09,17,32,19.50
2016,04,09,17,33,19.50
2016,04,09,17,34,19.50
2016,04,09,17,35,19.60